TimeCST,TemperatureF,Dew PointF,Humidity,Sea Level PressureIn,VisibilityMPH,Wind Direction,Wind SpeedMPH,Gust SpeedMPH,PrecipitationIn,Events,Conditions,WindDirDegrees,DateUTC
12:54 AM,44.1,28.9,55,30.32,10.0,NNE,8.1,-,N/A,,Clear,20,2012-11-14 06:54:00
1:54 AM,43.0,30.9,62,30.33,10.0,North,5.8,-,N/A,,Clear,10,2012-11-14 07:54:00
2:54 AM,39.9,32.0,73,30.33,10.0,North,3.5,-,N/A,,Clear,350,2012-11-14 08:54:00
3:54 AM,39.0,32.0,76,30.32,10.0,North,6.9,-,N/A,,Clear,360,2012-11-14 09:54:00
4:54 AM,39.0,33.1,79,30.34,10.0,Calm,Calm,-,N/A,,Clear,0,2012-11-14 10:54:00
5:54 AM,37.9,32.0,79,30.35,10.0,NNW,3.5,-,N/A,,Clear,340,2012-11-14 11:54:00
6:54 AM,37.0,30.0,76,30.36,10.0,North,3.5,-,N/A,,Clear,360,2012-11-14 12:54:00
7:54 AM,42.1,33.1,70,30.37,10.0,North,4.6,-,N/A,,Clear,350,2012-11-14 13:54:00
8:54 AM,-9999,-9999,N/A,30.37,-9999.0,North,6.9,-,N/A,,Unknown,10,2012-11-14 14:54:00
9:54 AM,48.2,28.4,46,30.36,10.0,North,8.1,-,N/A,,Clear,360,2012-11-14 15:54:00
10:54 AM,53.1,28.9,40,30.33,10.0,NNW,4.6,-,N/A,,Clear,330,2012-11-14 16:54:00
11:54 AM,55.0,28.9,37,30.30,10.0,Variable,3.5,-,N/A,,Scattered Clouds,0,2012-11-14 17:54:00
12:54 PM,57.9,30.0,35,30.29,10.0,NNW,9.2,-,N/A,,Partly Cloudy,340,2012-11-14 18:54:00
1:54 PM,57.0,30.0,36,30.28,10.0,NNW,10.4,16.1,N/A,,Partly Cloudy,340,2012-11-14 19:54:00
2:54 PM,57.0,32.0,39,30.28,10.0,NNW,9.2,-,N/A,,Clear,340,2012-11-14 20:54:00
3:54 PM,55.0,32.0,42,30.28,10.0,NNW,9.2,-,N/A,,Clear,340,2012-11-14 21:54:00
4:54 PM,50.0,33.1,52,30.29,10.0,NNW,8.1,-,N/A,,Clear,340,2012-11-14 22:54:00
5:54 PM,46.0,34.0,63,30.29,9.0,North,3.5,-,N/A,,Clear,350,2012-11-14 23:54:00
6:54 PM,44.1,34.0,68,30.30,10.0,North,4.6,-,N/A,,Clear,350,2012-11-15 00:54:00
7:54 PM,43.0,34.0,71,30.31,10.0,Calm,Calm,-,N/A,,Clear,0,2012-11-15 01:54:00
8:54 PM,39.9,34.0,79,30.30,10.0,Calm,Calm,-,N/A,,Clear,0,2012-11-15 02:54:00
9:54 PM,37.9,33.1,83,30.30,10.0,Calm,Calm,-,N/A,,Clear,0,2012-11-15 03:54:00
10:54 PM,37.9,33.1,83,30.30,10.0,Calm,Calm,-,N/A,,Clear,0,2012-11-15 04:54:00
11:54 PM,37.9,34.0,86,30.28,10.0,Calm,Calm,-,N/A,,Clear,0,2012-11-15 05:54:00